If you wish to contribute or participate in the discussions about articles you are invited to join SKYbrary as a registered user

 Actions

Castres-Mazamet Airport

From SKYbrary Wiki

LFCK
Airport
ICAO: LFCK – IATA: DCM
Summary
Name Castres-Mazamet Airport
Region Europe
Territory France FR.gif
Location , Midi-Pyrenees
Serving Castres
Elevation 240.182 m
788 ft
788 ft240.182 m
Type medium airport
Coordinates 43° 33' 22.50" N, 2° 17' 21.06" E
Runways
Designator Length Width Surface ROPS
14/32 1825 m5,987.533 ft
30 m98.425 ft
CON /


METAR
Observation LFCK 101300Z AUTO VRB02KT CAVOK 06/03 Q1028 NOSIG
Station Castres-Mazamet
Date/Time 10 December 2019 13:00:00
Wind direction °
Wind speed 02 kts
Lowest cloud amount clouds and visibility OK
Temperature 6°C
Dew point 3°C
Humidity 81%
QNH 1028 hPa
Weather condition n/a